Terug naar catalogus

GLOBALSTAR M083

ActiefCommunicatieLEO
NORAD 37739·PAYLOAD·🇺🇸 United States

Gelanceerd Jul 13, 2011 vanaf Baikonur Cosmodrome

Loading…

Volgende Passages (komende 24 uur)

TLE

VersSource: Space-Track

Epoch: Sep 14, 2026, 22:48 UTC

1 37739U 11033A   26257.95013801 -.00000085  00000-0  10497-3 0  9994
2 37739  51.9843  99.1610 0000637 103.7144  43.0221 12.62259211704287

Volg GLOBALSTAR M083 in realtime met AllMySat

Download on the App Store